FW0472 Weather Reports


Display with metric or nautical units.
time (UTC)temp
F
wind
direction
speed
MPH
gust
MPH
rain 1hr
in
rain 24hr
in
rain mn
in
humidity
%
barometer
mb
20260904015644 66 0 0.0 0.0 0.00 0.02 0.02 99 1039.1
20260904015143 65 344 0.0 0.0 0.00 0.02 0.02 99 1039.2
20260904014642 66 346 0.0 0.0 0.00 0.02 0.02 99 1039.2
20260904014138 66 321 0.0 0.0 0.00 0.02 0.02 99 1039.3
20260904013634 66 321 0.0 0.0 0.00 0.02 0.02 98 1039.3
20260904013130 66 334 0.0 0.0 0.00 0.02 0.02 98 1039.2
20260904012626 66 321 0.0 0.0 0.00 0.02 0.02 98 1039.3
20260904012124 66 314 0.0 0.0 0.00 0.02 0.02 98 1039.3
20260904011624 66 314 0.0 0.0 0.00 0.02 0.02 98 1039.3
20260904011119 66 314 0.0 0.0 0.00 0.02 0.02 98 1039.4
20260904010615 67 314 0.0 0.0 0.00 0.02 0.02 97 1039.3
20260904010111 67 314 0.0 0.0 0.00 0.02 0.02 97 1039.1
20260904005606 67 314 0.0 0.0 0.00 0.02 0.02 97 1039.2
20260904005101 67 314 0.0 0.0 0.00 0.02 0.02 97 1039.3
20260904004557 67 314 0.0 0.0 0.00 0.02 0.02 96 1039.1
20260904004051 67 314 0.0 0.0 0.00 0.02 0.02 96 1039.1
20260904003548 68 314 0.0 0.0 0.00 0.02 0.02 96 1039.1
20260904003044 68 314 0.0 0.0 0.00 0.02 0.02 96 1038.8
20260904002539 68 314 0.0 0.0 0.00 0.02 0.02 95 1038.6
20260904002038 68 314 0.0 0.0 0.00 0.02 0.02 95 1038.8
20260904001535 69 314 0.0 0.0 0.00 0.02 0.02 95 1038.6
20260904001033 69 314 0.0 0.0 0.00 0.02 0.02 94 1038.7
20260904000533 69 314 0.0 0.0 0.00 0.02 0.02 94 1038.7
20260904000030 69 314 0.0 0.0 0.00 0.02 0.02 94 1038.5
20260903235524 69 314 0.0 0.0 0.00 0.02 0.02 94 1038.4
20260903235020 69 315 0.0 0.0 0.00 0.02 0.02 94 1038.4
20260903234515 69 317 0.0 0.0 0.00 0.02 0.02 94 1038.4
20260903234010 69 323 0.0 0.0 0.00 0.02 0.02 93 1038.6
20260903233506 70 323 0.0 0.0 0.00 0.02 0.02 92 1038.4
20260903233002 70 324 0.0 0.0 0.00 0.02 0.02 91 1038.3
20260903232457 70 324 0.0 0.0 0.00 0.02 0.02 91 1038.5
20260903231956 71 324 0.0 0.0 0.00 0.02 0.02 90 1038.3
20260903231451 71 324 0.0 0.0 0.00 0.02 0.02 90 1038.4
20260903230946 71 324 0.0 0.0 0.00 0.02 0.02 89 1038.3
20260903230442 72 324 0.0 0.0 0.00 0.02 0.02 89 1038.6
20260903225938 72 352 0.0 0.0 0.00 0.02 0.02 88 1038.5
20260903225433 73 345 0.0 0.0 0.00 0.02 0.02 88 1038.7
20260903224929 73 317 0.0 0.0 0.00 0.02 0.02 87 1038.6
20260903224425 74 333 0.0 0.0 0.00 0.02 0.02 85 1038.8
20260903223921 75 334 0.0 0.0 0.00 0.02 0.02 86 1038.7
20260903223420 75 321 0.0 0.0 0.00 0.02 0.02 85 1038.4
20260903222919 75 324 0.0 0.0 0.00 0.02 0.02 84 1038.5
20260903222415 75 331 0.0 0.0 0.00 0.02 0.02 83 1038.4
20260903221909 76 322 0.0 0.0 0.00 0.02 0.02 83 1038.3
20260903221408 76 337 0.0 0.0 0.00 0.02 0.02 82 1038.4
20260903220906 77 324 0.0 0.0 0.00 0.02 0.02 81 1038.3
20260903220400 78 324 0.0 0.0 0.00 0.02 0.02 80 1038.5
20260903215858 77 323 0.0 0.0 0.00 0.02 0.02 80 1038.4
20260903215355 78 190 0.0 0.0 0.00 0.02 0.02 80 1038.4
20260903214853 79 314 0.0 0.0 0.00 0.02 0.02 79 1038.4
20260903214349 80 331 0.0 0.0 0.00 0.02 0.02 77 1038.6
20260903213848 78 331 0.0 0.0 0.00 0.02 0.02 79 1038.6
20260903213344 78 314 0.0 0.0 0.00 0.02 0.02 79 1038.5
20260903212840 76 344 0.0 0.0 0.00 0.02 0.02 83 1038.4
20260903212336 76 4 0.0 0.0 0.00 0.02 0.02 82 1038.4
20260903211835 76 345 0.0 0.0 0.00 0.02 0.02 82 1038.4
20260903211331 75 356 0.0 0.0 0.00 0.02 0.02 84 1038.5
20260903210827 75 31 0.0 0.0 0.00 0.02 0.02 83 1038.4
20260903210322 75 344 0.0 0.0 0.00 0.02 0.02 84 1038.6
20260903205821 75 328 0.0 0.0 0.00 0.02 0.02 83 1038.5
20260903205316 75 325 0.0 0.0 0.00 0.02 0.02 84 1038.4
20260903204811 76 347 0.0 0.0 0.00 0.02 0.02 83 1038.3
20260903204307 77 321 0.0 0.0 0.00 0.02 0.02 80 1038.3
20260903203803 76 342 0.0 0.0 0.00 0.02 0.02 83 1038.5
20260903203258 77 342 0.0 0.0 0.00 0.02 0.02 82 1038.5
20260903202757 77 342 0.0 0.0 0.00 0.02 0.02 81 1038.6
20260903202254 77 326 0.0 0.0 0.00 0.02 0.02 81 1038.3
20260903201753 77 326 0.0 0.0 0.00 0.02 0.02 80 1038.4
20260903201248 76 322 0.0 0.0 0.00 0.02 0.02 81 1038.5
20260903200747 76 315 0.0 0.0 0.00 0.02 0.02 81 1038.3
20260903200243 77 347 0.0 0.0 0.00 0.02 0.02 81 1038.5
20260903195738 77 303 0.0 0.0 0.00 0.02 0.02 80 1038.6
20260903195234 75 321 0.0 0.0 0.00 0.02 0.02 81 1038.7
20260903194733 76 329 0.0 0.0 0.00 0.02 0.02 79 1038.8
20260903194229 74 289 0.0 1.0 0.00 0.02 0.02 83 1038.7
20260903193724 74 16 0.0 0.0 0.00 0.02 0.02 85 1038.7
20260903193220 74 332 0.0 0.0 0.00 0.02 0.02 83 1038.8
20260903192716 75 17 0.0 0.0 0.00 0.02 0.02 83 1038.9
20260903192211 74 311 0.0 0.0 0.00 0.02 0.02 84 1038.8
20260903191708 73 300 0.0 0.0 0.00 0.02 0.02 85 1038.8
20260903191202 73 336 0.0 0.0 0.00 0.02 0.02 85 1038.9
20260903190656 72 344 0.0 0.0 0.00 0.02 0.02 86 1038.9
20260903190151 73 14 0.0 0.0 0.00 0.02 0.02 87 1039.1
20260903185646 73 344 0.0 0.0 0.00 0.02 0.02 85 1038.9
20260903185141 73 347 0.0 0.0 0.00 0.02 0.02 85 1038.8
20260903184638 72 346 0.0 0.0 0.00 0.02 0.02 86 1038.9
20260903184133 72 322 0.0 0.0 0.00 0.02 0.02 86 1038.9
20260903183632 71 326 0.0 0.0 0.00 0.02 0.02 87 1039.1
20260903183127 71 348 0.0 0.0 0.00 0.02 0.02 88 1039.1
20260903182626 71 303 0.0 0.0 0.00 0.02 0.02 88 1039.2
20260903182122 70 324 0.0 0.0 0.00 0.02 0.02 89 1039.2
20260903181614 70 40 0.0 0.0 0.00 0.02 0.02 90 1039.4
20260903181109 70 328 0.0 0.0 0.00 0.02 0.02 88 1039.4
20260903180604 70 327 0.0 0.0 0.00 0.02 0.02 89 1039.4
20260903180059 69 353 0.0 0.0 0.00 0.02 0.02 90 1039.5
20260903175558 69 342 0.0 0.0 0.00 0.02 0.02 91 1039.5
20260903175057 68 4 0.0 0.0 0.00 0.02 0.02 92 1039.4
20260903174553 68 0 0.0 0.0 0.00 0.02 0.02 92 1039.6
20260903174047 68 350 0.0 0.0 0.00 0.02 0.02 92 1039.5
20260903173542 68 9 0.0 0.0 0.00 0.02 0.02 91 1039.6
20260903173038 68 6 0.0 0.0 0.00 0.02 0.02 91 1039.6
20260903172533 68 322 0.0 0.0 0.00 0.02 0.02 90 1039.9
20260903172028 67 295 0.0 0.0 0.00 0.02 0.02 91 1039.9
20260903171523 67 343 0.0 0.0 0.00 0.02 0.02 92 1039.8
20260903171019 68 5 0.0 0.0 0.00 0.02 0.02 91 1040.0
20260903170517 68 322 0.0 0.0 0.00 0.02 0.02 91 1039.8
20260903170013 67 338 0.0 0.0 0.00 0.02 0.02 91 1039.9
20260903165505 67 14 0.0 0.0 0.00 0.02 0.02 92 1039.9
20260903165001 68 344 0.0 0.0 0.00 0.02 0.02 91 1039.8
20260903164455 68 4 0.0 0.0 0.00 0.02 0.02 90 1039.8
20260903163955 67 336 0.0 0.0 0.00 0.02 0.02 91 1039.9
20260903163451 67 338 0.0 0.0 0.00 0.02 0.02 91 1040.0
20260903162946 66 344 0.0 0.0 0.00 0.02 0.02 92 1039.8
20260903162438 66 285 0.0 0.0 0.00 0.02 0.02 92 1039.9
20260903161933 66 27 0.0 0.0 0.00 0.02 0.02 93 1040.1
20260903161428 66 341 0.0 0.0 0.00 0.02 0.02 93 1040.1
20260903160924 66 345 0.0 0.0 0.00 0.02 0.02 93 1040.3
20260903160423 66 330 0.0 0.0 0.00 0.02 0.02 93 1040.4
20260903155922 65 334 0.0 0.0 0.00 0.02 0.02 93 1040.6
20260903155417 65 335 0.0 0.0 0.00 0.02 0.02 94 1040.6
20260903154913 65 357 0.0 0.0 0.00 0.02 0.02 94 1040.4
20260903154409 64 19 0.0 0.0 0.00 0.02 0.02 95 1040.4
20260903153909 64 33 0.0 0.0 0.00 0.02 0.02 95 1040.7
20260903153404 64 341 0.0 0.0 0.00 0.02 0.02 95 1040.6
20260903152901 64 359 0.0 0.0 0.00 0.02 0.02 95 1040.6
20260903152356 64 352 0.0 0.0 0.00 0.02 0.02 96 1040.7
20260903151852 64 358 0.0 0.0 0.00 0.02 0.02 96 1040.8
20260903151347 64 339 0.0 0.0 0.00 0.02 0.02 96 1040.9
20260903150847 64 346 0.0 0.0 0.00 0.02 0.02 96 1041.1
20260903150341 63 336 0.0 0.0 0.00 0.02 0.02 96 1041.1
20260903145836 63 341 0.0 0.0 0.00 0.02 0.02 97 1041.0
20260903145331 63 344 0.0 0.0 0.00 0.02 0.02 97 1040.9
20260903144830 63 347 0.0 0.0 0.00 0.02 0.02 97 1041.2
20260903144326 63 343 0.0 0.0 0.00 0.02 0.02 96 1041.1
20260903143821 63 344 0.0 0.0 0.00 0.02 0.02 96 1041.1
20260903143318 63 344 0.0 0.0 0.00 0.02 0.02 96 1041.2
20260903142813 63 342 0.0 0.0 0.00 0.02 0.02 96 1041.2
20260903142309 63 350 0.0 0.0 0.00 0.02 0.02 96 1041.4
20260903141805 63 347 0.0 0.0 0.00 0.02 0.02 96 1041.3
20260903141301 63 343 0.0 0.0 0.00 0.02 0.02 96 1041.1
20260903140800 63 334 0.0 0.0 0.00 0.02 0.02 95 1041.4
20260903140255 63 334 0.0 0.0 0.00 0.02 0.02 96 1041.4
20260903135751 63 334 0.0 0.0 0.00 0.02 0.02 96 1041.4
20260903135246 63 334 0.0 0.0 0.00 0.02 0.02 96 1041.3
20260903134745 63 331 0.0 0.0 0.00 0.02 0.02 96 1041.3
20260903134241 63 347 0.0 0.0 0.00 0.02 0.02 96 1041.3
20260903133738 63 349 0.0 0.0 0.00 0.02 0.02 96 1041.1
20260903133234 63 341 0.0 0.0 0.00 0.02 0.02 96 1041.3
20260903132729 63 3 0.0 0.0 0.00 0.02 0.02 96 1041.2
20260903132224 63 20 0.0 0.0 0.00 0.02 0.02 96 1041.0
20260903131719 63 24 0.0 0.0 0.00 0.02 0.02 96 1041.2
20260903131219 63 4 0.0 0.0 0.00 0.02 0.02 96 1041.0
20260903130713 63 12 0.0 0.0 0.00 0.02 0.02 96 1040.9
20260903130208 62 345 0.0 0.0 0.00 0.02 0.02 96 1041.1
20260903125706 62 346 0.0 0.0 0.00 0.02 0.02 96 1041.3
20260903125202 62 342 0.0 0.0 0.00 0.02 0.02 96 1041.2
20260903124655 62 344 0.0 0.0 0.00 0.02 0.02 96 1041.2
20260903124150 62 336 0.0 0.0 0.00 0.02 0.02 97 1041.3
20260903123649 62 344 0.0 0.0 0.00 0.02 0.02 97 1041.1
20260903123148 61 345 0.0 0.0 0.00 0.02 0.02 97 1041.3
20260903122648 61 346 0.0 0.0 0.00 0.02 0.02 97 1041.2
20260903122143 61 342 0.0 0.0 0.00 0.02 0.02 97 1041.4
20260903121641 61 349 0.0 0.0 0.00 0.02 0.02 97 1041.4
20260903121137 61 324 0.0 0.0 0.00 0.02 0.02 97 1041.4
20260903120636 61 324 0.0 0.0 0.00 0.02 0.02 97 1041.4
20260903120131 61 313 0.0 0.0 0.00 0.02 0.02 97 1041.6
20260903115629 61 354 0.0 0.0 0.00 0.02 0.02 97 1041.4
20260903115125 61 318 0.0 0.0 0.00 0.02 0.02 97 1041.5
20260903114620 61 318 0.0 0.0 0.00 0.02 0.02 97 1041.5
20260903114115 61 318 0.0 0.0 0.00 0.02 0.02 97 1041.6
20260903113610 61 1 0.0 0.0 0.00 0.02 0.02 97 1041.8
20260903113106 61 352 0.0 0.0 0.00 0.02 0.02 97 1041.8
20260903112602 61 323 0.0 0.0 0.00 0.02 0.02 97 1041.6
20260903112057 61 329 0.0 0.0 0.00 0.02 0.02 97 1041.7
20260903111555 61 340 0.0 0.0 0.00 0.02 0.02 97 1041.6
20260903111052 61 340 0.0 0.0 0.00 0.02 0.02 97 1041.7
20260903110547 61 342 0.0 0.0 0.00 0.02 0.02 98 1041.6
20260903110042 61 342 0.0 0.0 0.00 0.02 0.02 98 1041.7
20260903105537 61 342 0.0 0.0 0.00 0.02 0.02 98 1041.6
20260903105032 61 342 0.0 0.0 0.00 0.02 0.02 98 1041.5
20260903104531 61 343 0.0 0.0 0.00 0.02 0.02 98 1041.6
20260903104027 61 343 0.0 0.0 0.00 0.02 0.02 98 1041.5
20260903103524 61 349 0.0 0.0 0.00 0.02 0.02 98 1041.6
20260903103020 61 345 0.0 0.0 0.00 0.02 0.02 97 1041.6
20260903102515 61 344 0.0 0.0 0.00 0.02 0.02 97 1041.5
20260903102014 61 348 0.0 0.0 0.00 0.02 0.02 97 1041.7
20260903101508 61 313 0.0 0.0 0.00 0.02 0.02 97 1041.6
20260903101004 61 316 0.0 0.0 0.00 0.02 0.02 97 1041.3
20260903100458 61 324 0.0 0.0 0.00 0.02 0.02 97 1041.3
20260903095955 61 350 0.0 0.0 0.00 0.02 0.02 97 1041.3
20260903095450 61 333 0.0 0.0 0.00 0.02 0.02 97 1041.3
20260903094945 61 319 0.0 0.0 0.00 0.02 0.02 97 1041.5
20260903094445 61 342 0.0 0.0 0.00 0.02 0.02 97 1041.5
20260903093941 61 324 0.0 0.0 0.00 0.02 0.02 97 1041.7
20260903093436 61 322 0.0 0.0 0.00 0.02 0.02 97 1041.6
20260903092932 61 344 0.0 0.0 0.00 0.02 0.02 97 1041.6
20260903092431 61 347 0.0 0.0 0.00 0.02 0.02 97 1041.4
20260903091930 61 293 0.0 0.0 0.00 0.02 0.02 97 1041.4
20260903091429 61 333 0.0 0.0 0.00 0.02 0.02 97 1041.5
20260903090924 61 333 0.0 0.0 0.00 0.02 0.02 97 1041.8
20260903090420 61 344 0.0 0.0 0.00 0.02 0.02 97 1041.7
20260903085918 61 329 0.0 0.0 0.00 0.02 0.02 97 1041.8
20260903085416 61 317 0.0 0.0 0.00 0.02 0.02 97 1041.7
20260903084916 60 318 0.0 0.0 0.00 0.02 0.02 98 1041.7
20260903084415 61 326 0.0 0.0 0.00 0.02 0.02 98 1041.8
20260903083910 61 325 0.0 0.0 0.00 0.02 0.02 98 1041.7
20260903083407 61 341 0.0 0.0 0.00 0.02 0.02 98 1041.9
20260903082905 61 353 0.0 0.0 0.00 0.02 0.02 98 1041.9
20260903082400 61 353 0.0 0.0 0.00 0.02 0.02 98 1042.0
20260903081855 61 345 0.0 0.0 0.00 0.02 0.02 98 1042.2
20260903081350 60 5 0.0 0.0 0.00 0.02 0.02 98 1042.1
20260903080847 60 317 0.0 0.0 0.00 0.02 0.02 98 1042.0
20260903080344 60 317 0.0 0.0 0.00 0.02 0.02 99 1042.0
20260903075843 60 350 0.0 0.0 0.00 0.02 0.02 99 1042.0
20260903075339 60 312 0.0 1.0 0.00 0.02 0.02 99 1042.1
20260903074833 60 353 1.0 1.0 0.00 0.02 0.02 99 1042.2
20260903074327 60 355 0.0 0.0 0.00 0.02 0.02 99 1042.3
20260903073823 60 349 0.0 0.0 0.00 0.02 0.02 99 1042.4
20260903073318 60 323 0.0 0.0 0.00 0.02 0.02 99 1042.7
20260903072814 60 347 0.0 0.0 0.00 0.02 0.02 99 1042.5
20260903072310 60 337 0.0 0.0 0.00 0.02 0.02 99 1042.4
20260903071806 60 335 0.0 0.0 0.00 0.02 0.02 99 1042.5
20260903071256 60 335 0.0 0.0 0.00 0.02 0.02 99 1042.4
20260903070756 60 355 0.0 0.0 0.00 0.02 0.02 99 1042.4
20260903070251 60 344 0.0 0.0 0.00 0.02 0.02 99 1042.5
20260903065741 60 340 0.0 0.0 0.00 0.02 0.02 98 1042.5
20260903065240 60 328 0.0 0.0 0.00 0.02 0.02 98 1042.6
20260903064739 60 351 0.0 0.0 0.00 0.02 0.02 98 1042.5
20260903064235 60 346 0.0 0.0 0.00 0.02 0.02 98 1042.7
20260903063731 60 347 0.0 0.0 0.00 0.02 0.02 98 1042.6
20260903063231 61 352 0.0 0.0 0.07 0.02 0.02 98 1042.4
20260903062722 61 358 0.0 0.0 0.07 0.02 0.02 98 1042.5
20260903062221 61 351 0.0 0.0 0.00 0.01 0.01 97 1042.7
20260903061718 61 344 0.0 0.0 0.00 0.01 0.01 97 1043.1
20260903061216 61 344 0.0 0.0 0.00 0.01 0.01 96 1042.9
20260903060711 61 341 0.0 0.0 0.05 0.01 0.01 96 1043.0
20260903060206 62 345 0.0 0.0 0.00 0.00 0.00 95 1042.8
20260903055704 62 16 0.0 0.0 0.00 0.00 0.00 95 1042.8
20260903055202 62 53 0.0 0.0 0.00 0.00 0.00 94 1042.8
20260903054657 62 78 1.0 2.0 0.00 0.00 0.00 94 1042.9
20260903054153 62 83 1.0 2.0 0.00 0.00 0.00 92 1042.7
20260903053649 62 92 0.0 0.0 0.00 0.00 0.00 91 1043.0
20260903053144 63 358 0.0 0.0 0.00 0.00 0.00 91 1043.5
20260903052640 63 71 0.0 0.0 0.00 0.00 0.00 91 1043.5
20260903052135 63 23 0.0 0.0 0.00 0.00 0.00 91 1043.6
20260903051630 63 50 0.0 0.0 0.00 0.00 0.00 90 1043.4
20260903051125 63 357 0.0 0.0 0.00 0.00 0.00 91 1043.5
20260903050620 63 37 0.0 0.0 0.00 0.00 0.00 90 1043.6
20260903050115 63 15 0.0 0.0 0.00 0.00 0.00 91 1043.8
20260903045614 63 30 0.0 0.0 0.00 0.00 0.00 90 1043.7
20260903045111 63 61 0.0 0.0 0.00 0.00 0.00 90 1043.6
20260903044606 63 83 0.0 0.0 0.00 0.00 0.00 90 1043.4
20260903044102 63 81 2.0 3.0 0.00 0.00 0.00 90 1043.3
20260903043558 63 50 0.0 1.0 0.00 0.00 0.00 90 1043.7
20260903043057 63 25 0.0 0.0 0.00 0.00 0.00 90 1043.8
20260903042552 63 10 0.0 0.0 0.00 0.00 0.00 90 1043.6
20260903042047 63 33 0.0 0.0 0.00 0.00 0.00 90 1043.5
20260903041544 63 95 0.0 1.0 0.00 0.00 0.00 90 1043.7
20260903041039 63 33 0.0 0.0 0.00 0.00 0.00 90 1043.8
20260903040537 63 56 0.0 1.0 0.00 0.00 0.00 90 1043.5
20260903040034 63 88 0.0 1.0 0.00 0.00 0.00 89 1043.6
20260903035529 63 75 0.0 0.0 0.00 0.00 0.00 90 1043.7
20260903035026 63 72 0.0 1.0 0.00 0.00 0.00 89 1043.6
20260903034525 63 29 1.0 1.0 0.00 0.00 0.00 89 1043.7
20260903034021 63 75 0.0 1.0 0.00 0.00 0.00 89 1043.8
20260903033515 64 51 0.0 0.0 0.00 0.00 0.00 89 1044.2
20260903033011 64 343 0.0 0.0 0.00 0.00 0.00 89 1044.2
20260903032506 64 351 0.0 0.0 0.00 0.00 0.00 89 1044.3
20260903032001 64 55 0.0 0.0 0.00 0.00 0.00 89 1044.3
20260903031500 64 4 0.0 0.0 0.00 0.00 0.00 90 1044.5
20260903030956 64 29 0.0 0.0 0.00 0.00 0.00 89 1044.3
20260903030452 64 54 0.0 0.0 0.00 0.00 0.00 89 1044.5
20260903025947 64 19 0.0 0.0 0.00 0.00 0.00 90 1044.4
20260903025443 64 52 0.0 0.0 0.00 0.00 0.00 89 1044.8
20260903024939 64 31 0.0 0.0 0.00 0.00 0.00 89 1044.7
20260903024437 64 55 0.0 0.0 0.00 0.00 0.00 90 1044.9
20260903023932 64 52 0.0 0.0 0.00 0.00 0.00 89 1045.0
20260903023429 64 13 0.0 0.0 0.00 0.00 0.00 90 1044.8
20260903022923 64 304 0.0 0.0 0.00 0.00 0.00 90 1044.8
20260903022423 64 3 0.0 0.0 0.00 0.00 0.00 90 1044.7
20260903021921 64 37 0.0 0.0 0.00 0.00 0.00 90 1044.5
20260903021416 64 29 0.0 0.0 0.00 0.00 0.00 90 1044.9
20260903020911 64 67 0.0 0.0 0.00 0.00 0.00 90 1044.9
20260903020406 64 83 1.0 1.0 0.00 0.00 0.00 90 1044.9
20260903015901 64 94 1.0 1.0 0.00 0.00 0.00 91 1044.9